Location: Nashville
(36.1660°N, 86.7840°W)
Time: 02:11:03
(UTC-06:00)

Tiros 1 - Visible Passes

Search period start: 28 January 2022 00:00
Search period end: 07 February 2022 00:00
Orbit: 629 x 664 km, 48.4° (Epoch: 27 January)

Date Brightness Start Highest point End Pass type
(mag) Time Alt. Az. Time Alt. Az. Time Alt. Az.
28 Jan 9.8 04:04:57 13° SE 04:04:57 13° SE 04:05:31 10° SE visible
28 Jan 9.8 19:48:19 10° SSW 19:48:48 13° SSW 19:48:48 13° SSW visible
29 Jan 9.0 18:34:01 10° SSE 18:36:34 16° SE 18:36:34 16° SE visible
29 Jan 10.0 20:13:48 10° SW 20:14:15 13° SW 20:14:15 13° SW visible
30 Jan 7.9 18:58:01 10° SSW 19:01:58 37° SSE 19:01:58 37° SSE visible
31 Jan 9.1 17:44:01 10° SSE 17:46:33 14° SE 17:49:06 10° E visible
31 Jan 7.5 19:23:23 10° SW 19:27:19 60° SW 19:27:19 60° SW visible
01 Feb 8.0 18:07:45 10° SSW 18:12:03 34° SE 18:14:54 18° E visible
01 Feb 8.7 19:49:32 10° WSW 19:52:35 34° WNW 19:52:35 34° WNW visible
02 Feb 7.1 18:33:00 10° SW 18:37:46 80° SE 18:40:04 31° ENE visible
02 Feb 9.7 20:16:13 10° W 20:17:46 18° WNW 20:17:46 18° WNW visible
03 Feb 7.8 18:59:04 10° WSW 19:03:43 50° NNW 19:05:11 37° NNE visible
04 Feb 7.2 17:42:37 10° SW 17:47:21 73° SE 17:52:09 10° ENE visible
04 Feb 8.6 19:25:41 10° W 19:29:54 30° NNW 19:30:13 29° NNW visible
05 Feb 7.7 18:08:36 10° WSW 18:13:16 54° NNW 18:17:32 13° NE visible
05 Feb 9.3 19:52:36 10° WNW 19:55:11 20° NNW 19:55:11 20° NNW visible
06 Feb 8.6 18:35:10 10° W 18:39:26 31° NNW 18:42:26 17° NNE visible
06 Feb 10.0 20:19:24 10° NW 20:20:06 13° NW 20:20:06 13° NW visible
